,,Stat5,,Stat1,,Stat2,,Stat3,,Stat4,,Wind1,,Wind1,
time,status,PA1M_AVG,status,PR1M_SUM,status,RH1M_AVG,status,SR1M_AVG,status,TA1M_AVG,status,W1dAve1m,status,W1sAve1m,
2002-01-15, 00:00:00,VALID,916.413,VALID,0,VALID,90.4848,VALID,-0.118866,VALID,20.068,VALID,117,VALID,1.35254,
2002-01-15, 00:01:00,VALID,916.408,VALID,0,VALID,90.6234,VALID,-0.0679233,VALID,20.0225,VALID,116,VALID,1.55549,
2002-01-15, 00:02:00,VALID,916.399,VALID,0,VALID,90.7684,VALID,-0.0509425,VALID,19.9962,VALID,125,VALID,1.84375,
2002-01-15, 00:03:00,VALID,916.391,VALID,0,VALID,90.8472,VALID,-0.0509425,VALID,19.9932,VALID,133,VALID,1.19852,
2002-01-15, 00:04:00,VALID,916.394,VALID,0,VALID,90.9146,VALID,-0.0679233,VALID,20.0034,VALID,121,VALID,1.99034,
2002-01-15, 00:05:00,VALID,916.407,VALID,0,VALID,90.9286,VALID,0,VALID,20.0031,VALID,125,VALID,1.80469,
2002-01-15, 00:06:00,VALID,916.419,VALID,0,VALID,91.0583,VALID,0,VALID,20.0031,VALID,109,VALID,1.79227,
2002-01-15, 00:07:00,VALID,916.423,VALID,0,VALID,91.2325,VALID,-0.0169808,VALID,19.9964,VALID,122,VALID,1.76758,
2002-01-15, 00:08:00,VALID,916.441,VALID,0,VALID,91.3851,VALID,-0.0849042,VALID,19.981,VALID,131,VALID,1.45122,
2002-01-15, 00:09:00,VALID,916.441,VALID,0,VALID,91.5886,VALID,-0.0509425,VALID,19.9415,VALID,130,VALID,1.57171,
2002-01-15, 00:10:00,VALID,916.441,VALID,0,VALID,91.8187,VALID,-0.0679233,VALID,19.9321,VALID,124,VALID,1.4978,
2002-01-15, 00:11:00,VALID,916.41,VALID,0,VALID,91.8798,VALID,-0.0509425,VALID,19.903,VALID,126,VALID,1.85874,
2002-01-15, 00:12:00,VALID,916.391,VALID,0,VALID,91.9561,VALID,-0.0169808,VALID,19.9134,VALID,129,VALID,1.66262,
2002-01-15, 00:13:00,VALID,916.383,VALID,0,VALID,92.0464,VALID,-0.0509425,VALID,19.8799,VALID,140,VALID,1.6433,
2002-01-15, 00:14:00,VALID,916.327,VALID,0,VALID,92.0743,VALID,-0.0849042,VALID,19.8806,VALID,134,VALID,2.15864,
2002-01-15, 00:15:00,VALID,916.324,VALID,0,VALID,91.9802,VALID,-0.0169808,VALID,19.8963,VALID,137,VALID,2.05689,
2002-01-15, 00:16:00,VALID,916.303,VALID,0,VALID,91.8938,VALID,-0.0339617,VALID,19.9159,VALID,127,VALID,1.93688,
2002-01-15, 00:17:00,VALID,916.284,VALID,0,VALID,91.8391,VALID,-0.0849042,VALID,19.9157,VALID,123,VALID,1.9734,
2002-01-15, 00:18:00,VALID,916.26,VALID,0,VALID,91.8391,VALID,-0.0509425,VALID,19.9191,VALID,130,VALID,1.41951,
2002-01-15, 00:19:00,VALID,916.256,VALID,0,VALID,91.8671,VALID,-0.0339617,VALID,19.9226,VALID,128,VALID,1.331,
2002-01-15, 00:20:00,VALID,916.257,VALID,0,VALID,91.8594,VALID,-0.0339617,VALID,19.8968,VALID,123,VALID,1.63471,
2002-01-15, 00:21:00,VALID,916.236,VALID,0,VALID,91.8175,VALID,-0.0509425,VALID,19.8963,VALID,126,VALID,1.96674,
2002-01-15, 00:22:00,VALID,916.23,VALID,0,VALID,91.7933,VALID,-0.0509425,VALID,19.8998,VALID,123,VALID,1.39732,
2002-01-15, 00:23:00,VALID,916.246,VALID,0,VALID,91.7882,VALID,-0.0509425,VALID,19.8928,VALID,131,VALID,1.49053,
2002-01-15, 00:24:00,VALID,916.254,VALID,0,VALID,91.8213,VALID,-0.0509425,VALID,19.9097,VALID,124,VALID,1.82313,
2002-01-15, 00:25:00,VALID,916.268,VALID,0,VALID,91.7857,VALID,-0.0169808,VALID,19.9095,VALID,110,VALID,1.53988,
2002-01-15, 00:26:00,VALID,916.281,VALID,0,VALID,91.9637,VALID,-0.0849042,VALID,19.9196,VALID,100,VALID,1.84615,
2002-01-15, 00:27:00,VALID,916.279,VALID,0,VALID,92.0057,VALID,-0.0339617,VALID,19.9259,VALID,119,VALID,1.72617,
2002-01-15, 00:28:00,VALID,916.293,VALID,0,VALID,92.1634,VALID,-0.0679233,VALID,19.9065,VALID,121,VALID,2.0692,
2002-01-15, 00:29:00,VALID,916.281,VALID,0,VALID,92.349,VALID,-0.0339617,VALID,19.8774,VALID,122,VALID,2.03209,
2002-01-15, 00:30:00,VALID,916.272,VALID,0,VALID,92.3884,VALID,-0.0339617,VALID,19.8677,VALID,140,VALID,2.07445,
2002-01-15, 00:31:00,VALID,916.268,VALID,0,VALID,92.2142,VALID,-0.0509425,VALID,19.8868,VALID,134,VALID,2.5971,
2002-01-15, 00:32:00,VALID,916.264,VALID,0,VALID,91.9853,VALID,-0.0169808,VALID,19.9288,VALID,138,VALID,2.53606,
2002-01-15, 00:33:00,VALID,916.255,VALID,0,VALID,91.7768,VALID,-0.0169808,VALID,19.9641,VALID,139,VALID,2.28948,
2002-01-15, 00:34:00,VALID,916.254,VALID,0,VALID,91.492,VALID,-0.0339617,VALID,20.0098,VALID,139,VALID,1.89083,
2002-01-15, 00:35:00,VALID,916.273,VALID,0,VALID,91.2949,VALID,-0.0169808,VALID,20.029,VALID,137,VALID,1.68103,
2002-01-15, 00:36:00,VALID,916.27,VALID,0,VALID,91.2567,VALID,-0.0509425,VALID,20.0451,VALID,135,VALID,1.81591,
2002-01-15, 00:37:00,VALID,916.275,VALID,0,VALID,91.2694,VALID,-0.0169808,VALID,20.0578,VALID,144,VALID,2.15317,
2002-01-15, 00:38:00,VALID,916.269,VALID,0,VALID,91.244,VALID,0,VALID,20.0546,VALID,152,VALID,1.90039,
2002-01-15, 00:39:00,VALID,916.263,VALID,0,VALID,91.2084,VALID,-0.0509425,VALID,20.0481,VALID,150,VALID,2.02015,
2002-01-15, 00:40:00,VALID,916.254,VALID,0,VALID,91.1181,VALID,-0.0169808,VALID,20.061,VALID,120,VALID,2.6248,
2002-01-15, 00:41:00,VALID,916.244,VALID,0,VALID,90.9858,VALID,-0.0169808,VALID,20.0874,VALID,127,VALID,1.96836,
2002-01-15, 00:42:00,VALID,916.24,VALID,0,VALID,90.9858,VALID,-0.0509425,VALID,20.1167,VALID,112,VALID,1.3625,
2002-01-15, 00:43:00,VALID,916.217,VALID,0,VALID,91.0037,VALID,0,VALID,20.0968,VALID,123,VALID,1.84312,
2002-01-15, 00:44:00,VALID,916.218,VALID,0,VALID,91.0469,VALID,-0.0169808,VALID,20.0807,VALID,117,VALID,1.26103,
2002-01-15, 00:45:00,VALID,916.183,VALID,0,VALID,91.0138,VALID,-0.0339617,VALID,20.0677,VALID,131,VALID,1.51629,
2002-01-15, 00:46:00,VALID,916.157,VALID,0,VALID,90.8968,VALID,-0.0339617,VALID,20.0543,VALID,123,VALID,1.35116,
2002-01-15, 00:47:00,VALID,916.135,VALID,0,VALID,90.8116,VALID,-0.0679233,VALID,20.0615,VALID,136,VALID,1.40921,
2002-01-15, 00:48:00,VALID,916.112,VALID,0,VALID,90.907,VALID,-0.0339617,VALID,20.0672,VALID,87,VALID,0.947163,
2002-01-15, 00:49:00,VALID,916.118,VALID,0,VALID,91.1728,VALID,-0.0169808,VALID,20.0581,VALID,84,VALID,1.38839,
2002-01-15, 00:50:00,VALID,916.114,VALID,0,VALID,91.3762,VALID,-0.0169808,VALID,20.032,VALID,100,VALID,1.02204,
2002-01-15, 00:51:00,VALID,916.116,VALID,0,VALID,91.5988,VALID,-0.0339617,VALID,20.0064,VALID,86,VALID,1.20549,
2002-01-15, 00:52:00,VALID,916.105,VALID,0,VALID,91.7806,VALID,-0.0339617,VALID,19.9907,VALID,124,VALID,1.21354,
2002-01-15, 00:53:00,VALID,916.1,VALID,0,VALID,91.9497,VALID,-0.0339617,VALID,19.9676,VALID,94,VALID,1.39063,
2002-01-15, 00:54:00,VALID,916.088,VALID,0,VALID,92.0782,VALID,-0.0169808,VALID,19.9383,VALID,95,VALID,0.609575,
2002-01-15, 00:55:00,VALID,916.089,VALID,0,VALID,92.2244,VALID,-0.0169808,VALID,19.9321,VALID,135,VALID,0.785156,
2002-01-15, 00:56:00,VALID,916.068,VALID,0,VALID,92.3414,VALID,-0.0679233,VALID,19.91,VALID,121,VALID,1.37433,
2002-01-15, 00:57:00,VALID,916.065,VALID,0,VALID,92.41,VALID,-0.0509425,VALID,19.8933,VALID,97,VALID,0.973606,
2002-01-15, 00:58:00,VALID,916.067,VALID,0,VALID,92.3719,VALID,-0.0339617,VALID,19.8938,VALID,99,VALID,1.38212,
2002-01-15, 00:59:00,VALID,916.052,VALID,0,VALID,92.4495,VALID,-0.0169808,VALID,19.8903,VALID,102,VALID,1.45781,
2002-01-15, 01:00:00,VALID,916.036,VALID,0,VALID,92.5436,VALID,-0.0339617,VALID,19.8675,VALID,88,VALID,1.08273,
2002-01-15, 01:01:00,VALID,916.023,VALID,0,VALID,92.6148,VALID,-0.0339617,VALID,19.8478,VALID,85,VALID,1.77703,
2002-01-15, 01:02:00,VALID,916.023,VALID,0,VALID,92.6555,VALID,-0.0339617,VALID,19.8349,VALID,104,VALID,1.49301,
2002-01-15, 01:03:00,VALID,916.006,VALID,0,VALID,92.6237,VALID,-0.0169808,VALID,19.8217,VALID,116,VALID,1.42277,
2002-01-15, 01:04:00,VALID,915.984,VALID,0,VALID,92.527,VALID,-0.0339617,VALID,19.8448,VALID,83,VALID,1.93389,
2002-01-15, 01:05:00,VALID,915.986,VALID,0,VALID,92.4698,VALID,-0.0169808,VALID,19.8615,VALID,90,VALID,1.1965,
2002-01-15, 01:06:00,VALID,915.979,VALID,0,VALID,92.5525,VALID,-0.0339617,VALID,19.8483,VALID,92,VALID,1.85178,
2002-01-15, 01:07:00,VALID,915.953,VALID,0,VALID,92.5461,VALID,-0.0509425,VALID,19.8419,VALID,127,VALID,1.52919,
2002-01-15, 01:08:00,VALID,915.951,VALID,0,VALID,92.555,VALID,-0.0679233,VALID,19.8386,VALID,99,VALID,1.10917,
2002-01-15, 01:09:00,VALID,915.936,VALID,0,VALID,92.5677,VALID,-0.0169808,VALID,19.8384,VALID,151,VALID,1.05605,
2002-01-15, 01:10:00,VALID,915.91,VALID,0,VALID,92.4825,VALID,-0.0339617,VALID,19.8347,VALID,120,VALID,1.3317,
2002-01-15, 01:11:00,VALID,915.906,VALID,0,VALID,92.5207,VALID,-0.0339617,VALID,19.8448,VALID,94,VALID,2.02006,
2002-01-15, 01:12:00,VALID,915.889,VALID,0,VALID,92.4825,VALID,-0.0509425,VALID,19.8419,VALID,133,VALID,1.4221,
2002-01-15, 01:13:00,VALID,915.87,VALID,0,VALID,92.349,VALID,-0.101885,VALID,19.8257,VALID,122,VALID,1.74777,
2002-01-15, 01:14:00,VALID,915.849,VALID,0,VALID,92.096,VALID,-0.0509425,VALID,19.8351,VALID,106,VALID,1.57071,
2002-01-15, 01:15:00,VALID,915.842,VALID,0,VALID,92.1214,VALID,-0.0339617,VALID,19.8612,VALID,120,VALID,0.970439,
2002-01-15, 01:16:00,VALID,915.803,VALID,0,VALID,92.0158,VALID,-0.0169808,VALID,19.861,VALID,122,VALID,1.40728,
2002-01-15, 01:17:00,VALID,915.783,VALID,0,VALID,91.9752,VALID,-0.0339617,VALID,19.8645,VALID,100,VALID,1.3654,
2002-01-15, 01:18:00,VALID,915.768,VALID,0,VALID,91.9065,VALID,-0.0509425,VALID,19.8672,VALID,89,VALID,1.20653,
2002-01-15, 01:19:00,VALID,915.75,VALID,0,VALID,91.8111,VALID,-0.0169808,VALID,19.8771,VALID,109,VALID,1.55895,
2002-01-15, 01:20:00,VALID,915.742,VALID,0,VALID,91.7475,VALID,-0.0339617,VALID,19.8935,VALID,133,VALID,1.28885,
2002-01-15, 01:21:00,VALID,915.715,VALID,0,VALID,91.614,VALID,-0.0509425,VALID,19.9008,VALID,126,VALID,1.09252,
2002-01-15, 01:22:00,VALID,915.708,VALID,0,VALID,91.6102,VALID,-0.0679233,VALID,19.8968,VALID,127,VALID,1.09014,
2002-01-15, 01:23:00,VALID,915.711,VALID,0,VALID,91.7018,VALID,-0.0169808,VALID,19.8965,VALID,108,VALID,1.01191,
2002-01-15, 01:24:00,VALID,915.711,VALID,0,VALID,91.7374,VALID,-0.0339617,VALID,19.8903,VALID,116,VALID,0.828348,
2002-01-15, 01:25:00,VALID,915.691,VALID,0,VALID,91.5784,VALID,-0.0339617,VALID,19.8769,VALID,143,VALID,1.31947,
2002-01-15, 01:26:00,VALID,915.672,VALID,0,VALID,91.5415,VALID,-0.0169808,VALID,19.8906,VALID,132,VALID,1.34536,
2002-01-15, 01:27:00,VALID,915.674,VALID,0,VALID,91.6255,VALID,0,VALID,19.8975,VALID,97,VALID,0.864509,
2002-01-15, 01:28:00,VALID,915.651,VALID,0,VALID,91.6623,VALID,-0.0849042,VALID,19.8774,VALID,100,VALID,1.30369,
2002-01-15, 01:29:00,VALID,915.684,VALID,0,VALID,91.6,VALID,-0.0509425,VALID,19.8543,VALID,127,VALID,1.36339,
2002-01-15, 01:30:00,VALID,915.687,VALID,0,VALID,91.5886,VALID,-0.0679233,VALID,19.8712,VALID,143,VALID,1.54852,
2002-01-15, 01:31:00,VALID,915.653,VALID,0,VALID,91.4563,VALID,-0.0339617,VALID,19.8774,VALID,134,VALID,1.40915,
2002-01-15, 01:32:00,VALID,915.677,VALID,0,VALID,91.5619,VALID,-0.0509425,VALID,19.8809,VALID,108,VALID,1.3123,
2002-01-15, 01:33:00,VALID,915.691,VALID,0,VALID,91.6458,VALID,-0.0339617,VALID,19.8612,VALID,123,VALID,1.22822,
2002-01-15, 01:34:00,VALID,915.672,VALID,0,VALID,91.4144,VALID,-0.0679233,VALID,19.8682,VALID,139,VALID,1.36393,
2002-01-15, 01:35:00,VALID,915.652,VALID,0,VALID,90.9986,VALID,-0.0679233,VALID,19.8811,VALID,131,VALID,1.87027,
2002-01-15, 01:36:00,VALID,915.65,VALID,0,VALID,90.9846,VALID,-0.0509425,VALID,19.9095,VALID,136,VALID,1.69171,
2002-01-15, 01:37:00,VALID,915.644,VALID,0,VALID,91.052,VALID,-0.0339617,VALID,19.9259,VALID,122,VALID,1.26152,
2002-01-15, 01:38:00,VALID,915.644,VALID,0,VALID,91.1601,VALID,0,VALID,19.9259,VALID,107,VALID,1.29531,
2002-01-15, 01:39:00,VALID,915.637,VALID,0,VALID,91.3355,VALID,-0.0339617,VALID,19.9095,VALID,137,VALID,0.976774,
2002-01-15, 01:40:00,VALID,915.63,VALID,0,VALID,91.0863,VALID,-0.0339617,VALID,19.8742,VALID,141,VALID,1.517,
2002-01-15, 01:41:00,VALID,915.592,VALID,0,VALID,90.9299,VALID,-0.0849042,VALID,19.8737,VALID,145,VALID,1.70402,
2002-01-15, 01:42:00,VALID,915.599,VALID,0,VALID,90.8892,VALID,-0.0339617,VALID,19.9032,VALID,116,VALID,1.30288,
2002-01-15, 01:43:00,VALID,915.592,VALID,0,VALID,90.4391,VALID,-0.0679233,VALID,19.91,VALID,148,VALID,2.04561,
2002-01-15, 01:44:00,VALID,915.574,VALID,0,VALID,90.0932,VALID,-0.0339617,VALID,19.9457,VALID,136,VALID,1.33882,
2002-01-15, 01:45:00,VALID,915.583,VALID,0,VALID,89.8325,VALID,-0.0509425,VALID,19.9805,VALID,148,VALID,1.64018,
2002-01-15, 01:46:00,VALID,915.578,VALID,0,VALID,89.7117,VALID,-0.0679233,VALID,20.0064,VALID,114,VALID,1.6264,
2002-01-15, 01:47:00,VALID,915.576,VALID,0,VALID,89.6481,VALID,-0.0679233,VALID,20.023,VALID,119,VALID,1.43442,
2002-01-15, 01:48:00,VALID,915.557,VALID,0,VALID,89.3849,VALID,-0.0679233,VALID,20.0297,VALID,124,VALID,1.70681,
2002-01-15, 01:49:00,VALID,915.547,VALID,0,VALID,88.9653,VALID,-0.0509425,VALID,20.0556,VALID,134,VALID,1.39618,
2002-01-15, 01:50:00,VALID,915.513,VALID,0,VALID,89.0543,VALID,-0.101885,VALID,20.0936,VALID,120,VALID,1.28466,
2002-01-15, 01:51:00,VALID,915.519,VALID,0,VALID,89.1179,VALID,-0.0849042,VALID,20.1011,VALID,109,VALID,1.32676,
2002-01-15, 01:52:00,VALID,915.489,VALID,0,VALID,89.2641,VALID,-0.0679233,VALID,20.0814,VALID,114,VALID,1.38571,
2002-01-15, 01:53:00,VALID,915.473,VALID,0,VALID,89.4472,VALID,-0.0679233,VALID,20.0653,VALID,117,VALID,1.49071,
2002-01-15, 01:54:00,VALID,915.458,VALID,0,VALID,89.624,VALID,-0.0849042,VALID,20.0454,VALID,132,VALID,1.43681,
2002-01-15, 01:55:00,VALID,915.433,VALID,0,VALID,89.5273,VALID,-0.0849042,VALID,20.0325,VALID,115,VALID,1.27723,
2002-01-15, 01:56:00,VALID,915.421,VALID,0,VALID,89.6011,VALID,-0.0339617,VALID,20.0233,VALID,117,VALID,1.60377,
2002-01-15, 01:57:00,VALID,915.404,VALID,0,VALID,89.6926,VALID,-0.0679233,VALID,20.0031,VALID,137,VALID,1.54033,
2002-01-15, 01:58:00,VALID,915.394,VALID,0,VALID,89.9152,VALID,-0.0509425,VALID,19.9838,VALID,128,VALID,1.5514,
2002-01-15, 01:59:00,VALID,915.386,VALID,0,VALID,89.6341,VALID,-0.0339617,VALID,19.991,VALID,146,VALID,1.89911,
2002-01-15, 02:00:00,VALID,915.361,VALID,0,VALID,89.5833,VALID,-0.0509425,VALID,20.0098,VALID,123,VALID,1.91066,
2002-01-15, 02:01:00,VALID,915.38,VALID,0,VALID,89.732,VALID,-0.0169808,VALID,20.0195,VALID,123,VALID,1.17708,
2002-01-15, 02:02:00,VALID,915.365,VALID,0,VALID,89.9953,VALID,-0.0509425,VALID,19.9999,VALID,113,VALID,1.35612,
2002-01-15, 02:03:00,VALID,915.349,VALID,0,VALID,90.1949,VALID,-0.0509425,VALID,19.9746,VALID,122,VALID,1.36678,
2002-01-15, 02:04:00,VALID,915.319,VALID,0,VALID,90.3195,VALID,-0.0169808,VALID,19.9353,VALID,116,VALID,1.46755,
2002-01-15, 02:05:00,VALID,915.303,VALID,0,VALID,90.5154,VALID,-0.0679233,VALID,19.9194,VALID,117,VALID,0.960547,
2002-01-15, 02:06:00,VALID,915.296,VALID,0,VALID,90.7468,VALID,-0.0339617,VALID,19.8868,VALID,117,VALID,0.981027,
2002-01-15, 02:07:00,VALID,915.268,VALID,0,VALID,90.8549,VALID,-0.0339617,VALID,19.8607,VALID,117,VALID,0.927787,
2002-01-15, 02:08:00,VALID,915.25,VALID,0,VALID,90.9719,VALID,-0.0679233,VALID,19.8486,VALID,126,VALID,1.1489,
2002-01-15, 02:09:00,VALID,915.23,VALID,0,VALID,91.1295,VALID,-0.0169808,VALID,19.8093,VALID,132,VALID,1.33549,
2002-01-15, 02:10:00,VALID,915.237,VALID,0,VALID,91.2974,VALID,-0.0339617,VALID,19.7832,VALID,107,VALID,1.20032,
2002-01-15, 02:11:00,VALID,915.234,VALID,0,VALID,91.3381,VALID,-0.0679233,VALID,19.771,VALID,120,VALID,1.4432,
2002-01-15, 02:12:00,VALID,915.228,VALID,0,VALID,91.3889,VALID,-0.0679233,VALID,19.7616,VALID,137,VALID,1.49486,
2002-01-15, 02:13:00,VALID,915.215,VALID,0,VALID,91.394,VALID,-0.0509425,VALID,19.7487,VALID,139,VALID,1.70491,
2002-01-15, 02:14:00,VALID,915.218,VALID,0,VALID,91.2351,VALID,-0.0339617,VALID,19.738,VALID,121,VALID,1.6845,
2002-01-15, 02:15:00,VALID,915.229,VALID,0,VALID,91.1931,VALID,-0.0169808,VALID,19.7678,VALID,131,VALID,1.23106,
2002-01-15, 02:16:00,VALID,915.219,VALID,0,VALID,91.174,VALID,-0.0509425,VALID,19.7678,VALID,126,VALID,1.14171,
2002-01-15, 02:17:00,VALID,915.239,VALID,0,VALID,91.2999,VALID,-0.0509425,VALID,19.7713,VALID,115,VALID,1.39885,
2002-01-15, 02:18:00,VALID,915.23,VALID,0,VALID,91.3724,VALID,-0.0339617,VALID,19.7579,VALID,120,VALID,1.35857,
2002-01-15, 02:19:00,VALID,915.222,VALID,0,VALID,91.1041,VALID,-0.0169808,VALID,19.7512,VALID,113,VALID,1.7127,
2002-01-15, 02:20:00,VALID,915.22,VALID,0,VALID,90.6145,VALID,0,VALID,19.7897,VALID,133,VALID,1.64933,
2002-01-15, 02:21:00,VALID,915.215,VALID,0,VALID,90.659,VALID,-0.0339617,VALID,19.8419,VALID,126,VALID,1.87196,
2002-01-15, 02:22:00,VALID,915.22,VALID,0,VALID,90.687,VALID,-0.0679233,VALID,19.8453,VALID,131,VALID,1.55124,
2002-01-15, 02:23:00,VALID,915.213,VALID,0,VALID,90.7277,VALID,-0.0679233,VALID,19.8354,VALID,138,VALID,1.40625,
2002-01-15, 02:24:00,VALID,915.206,VALID,0,VALID,90.5967,VALID,-0.0679233,VALID,19.8359,VALID,135,VALID,1.66386,
2002-01-15, 02:25:00,VALID,915.23,VALID,0,VALID,90.448,VALID,-0.0679233,VALID,19.8521,VALID,118,VALID,1.11191,
2002-01-15, 02:26:00,VALID,915.251,VALID,0,VALID,90.4085,VALID,-0.0849042,VALID,19.8615,VALID,106,VALID,0.625,
2002-01-15, 02:27:00,VALID,915.251,VALID,0,VALID,90.4187,VALID,-0.0509425,VALID,19.8714,VALID,147,VALID,0.603348,
2002-01-15, 02:28:00,VALID,915.243,VALID,0,VALID,90.4785,VALID,-0.0679233,VALID,19.8647,VALID,136,VALID,0.97476,
2002-01-15, 02:29:00,VALID,915.252,VALID,0,VALID,90.5751,VALID,-0.0509425,VALID,19.8481,VALID,113,VALID,0.781487,
2002-01-15, 02:30:00,VALID,915.254,VALID,0,VALID,90.626,VALID,-0.0509425,VALID,19.8491,VALID,116,VALID,1.18967,
2002-01-15, 02:31:00,VALID,915.235,VALID,0,VALID,90.743,VALID,-0.0679233,VALID,19.8257,VALID,125,VALID,1.14042,
2002-01-15, 02:32:00,VALID,915.228,VALID,0,VALID,90.8829,VALID,-0.0339617,VALID,19.8063,VALID,127,VALID,1.05729,
2002-01-15, 02:33:00,VALID,915.194,VALID,0,VALID,90.9591,VALID,-0.0509425,VALID,19.7837,VALID,121,VALID,0.972266,
2002-01-15, 02:34:00,VALID,915.167,VALID,0,VALID,91.0253,VALID,-0.0509425,VALID,19.7609,VALID,113,VALID,0.831027,
2002-01-15, 02:35:00,VALID,915.139,VALID,0,VALID,91.188,VALID,-0.0339617,VALID,19.7611,VALID,91,VALID,1.03104,
2002-01-15, 02:36:00,VALID,915.124,VALID,0,VALID,91.2707,VALID,-0.0509425,VALID,19.7387,VALID,89,VALID,1.48644,
2002-01-15, 02:37:00,VALID,915.11,VALID,0,VALID,91.1257,VALID,-0.0509425,VALID,19.7097,VALID,98,VALID,1.12812,
2002-01-15, 02:38:00,VALID,915.087,VALID,0,VALID,90.9744,VALID,-0.0509425,VALID,19.7256,VALID,88,VALID,1.34836,
2002-01-15, 02:39:00,VALID,915.091,VALID,0,VALID,90.7303,VALID,-0.0339617,VALID,19.741,VALID,94,VALID,1.35747,
2002-01-15, 02:40:00,VALID,915.09,VALID,0,VALID,90.687,VALID,-0.0169808,VALID,19.781,VALID,92,VALID,1.22019,
2002-01-15, 02:41:00,VALID,915.1,VALID,0,VALID,90.7328,VALID,-0.0849042,VALID,19.784,VALID,102,VALID,1.10335,
2002-01-15, 02:42:00,VALID,915.093,VALID,0,VALID,90.6298,VALID,-0.0169808,VALID,19.781,VALID,98,VALID,1.3724,
2002-01-15, 02:43:00,VALID,915.095,VALID,0,VALID,90.4785,VALID,-0.0679233,VALID,19.8066,VALID,95,VALID,1.51468,
2002-01-15, 02:44:00,VALID,915.114,VALID,0,VALID,90.4403,VALID,-0.101885,VALID,19.8028,VALID,96,VALID,0.928385,
2002-01-15, 02:45:00,VALID,915.106,VALID,0,VALID,90.3831,VALID,-0.0679233,VALID,19.8163,VALID,106,VALID,1.0185,
2002-01-15, 02:46:00,VALID,915.121,VALID,0,VALID,90.4747,VALID,-0.0509425,VALID,19.8394,VALID,97,VALID,1.39423,
2002-01-15, 02:47:00,VALID,915.118,VALID,0,VALID,90.467,VALID,-0.0679233,VALID,19.8262,VALID,96,VALID,1.73086,
2002-01-15, 02:48:00,VALID,915.116,VALID,0,VALID,90.4874,VALID,-0.0509425,VALID,19.8063,VALID,103,VALID,1.16473,
2002-01-15, 02:49:00,VALID,915.112,VALID,0,VALID,90.392,VALID,-0.0169808,VALID,19.8066,VALID,134,VALID,0.897171,
2002-01-15, 02:50:00,VALID,915.088,VALID,0,VALID,90.3818,VALID,-0.0339617,VALID,19.8192,VALID,146,VALID,0.90579,
2002-01-15, 02:51:00,VALID,915.096,VALID,0,VALID,90.4391,VALID,-0.0679233,VALID,19.8294,VALID,133,VALID,0.737946,
2002-01-15, 02:52:00,VALID,915.093,VALID,0,VALID,90.5611,VALID,-0.0339617,VALID,19.8026,VALID,115,VALID,0.569111,
2002-01-15, 02:53:00,VALID,915.089,VALID,0,VALID,90.6489,VALID,0,VALID,19.773,VALID,137,VALID,1.26267,
2002-01-15, 02:54:00,VALID,915.086,VALID,0,VALID,90.6514,VALID,-0.0339617,VALID,19.7638,VALID,142,VALID,1.03988,
2002-01-15, 02:55:00,VALID,915.077,VALID,0,VALID,90.6056,VALID,-0.0339617,VALID,19.7576,VALID,142,VALID,1.12388,
2002-01-15, 02:56:00,VALID,915.056,VALID,0,VALID,90.584,VALID,-0.0169808,VALID,19.7574,VALID,144,VALID,1.11739,
2002-01-15, 02:57:00,VALID,915.048,VALID,0,VALID,90.4696,VALID,0,VALID,19.7633,VALID,138,VALID,1.47609,
2002-01-15, 02:58:00,VALID,915.024,VALID,0,VALID,90.4823,VALID,0,VALID,19.7835,VALID,149,VALID,1.27626,
2002-01-15, 02:59:00,VALID,915.022,VALID,0,VALID,90.5815,VALID,-0.0339617,VALID,19.7797,VALID,131,VALID,0.923725,
2002-01-15, 03:00:00,VALID,915.01,VALID,0,VALID,90.5777,VALID,0,VALID,19.7733,VALID,129,VALID,1.53265,
2002-01-15, 03:01:00,VALID,915.003,VALID,0,VALID,90.4976,VALID,-0.0169808,VALID,19.7604,VALID,130,VALID,1.60938,
2002-01-15, 03:02:00,VALID,914.991,VALID,0,VALID,90.3615,VALID,0,VALID,19.7763,VALID,131,VALID,1.47991,
2002-01-15, 03:03:00,VALID,914.976,VALID,0,VALID,90.2648,VALID,-0.0339617,VALID,19.7899,VALID,138,VALID,1.20017,
2002-01-15, 03:04:00,VALID,914.964,VALID,0,VALID,90.2178,VALID,-0.0169808,VALID,19.7994,VALID,130,VALID,1.08709,
2002-01-15, 03:05:00,VALID,914.955,VALID,0,VALID,90.0754,VALID,0,VALID,19.8158,VALID,131,VALID,1.38281,
2002-01-15, 03:06:00,VALID,914.935,VALID,0,VALID,89.9648,VALID,-0.0169808,VALID,19.8359,VALID,135,VALID,1.17268,
2002-01-15, 03:07:00,VALID,914.927,VALID,0,VALID,89.7359,VALID,0,VALID,19.8451,VALID,136,VALID,1.53547,
2002-01-15, 03:08:00,VALID,914.924,VALID,0,VALID,89.5019,VALID,-0.0339617,VALID,19.8809,VALID,140,VALID,1.70045,
2002-01-15, 03:09:00,VALID,914.928,VALID,0,VALID,89.2374,VALID,0,VALID,19.9226,VALID,137,VALID,1.66964,
2002-01-15, 03:10:00,VALID,914.923,VALID,0,VALID,89.081,VALID,-0.0169808,VALID,19.9681,VALID,132,VALID,1.29768,
2002-01-15, 03:11:00,VALID,914.931,VALID,0,VALID,89.0746,VALID,0,VALID,19.9703,VALID,148,VALID,1.79877,
2002-01-15, 03:12:00,VALID,914.931,VALID,0,VALID,89.1497,VALID,0,VALID,19.9835,VALID,142,VALID,1.62804,
2002-01-15, 03:13:00,VALID,914.947,VALID,0,VALID,89.2997,VALID,0,VALID,19.9773,VALID,144,VALID,1.63384,
2002-01-15, 03:14:00,VALID,914.943,VALID,0,VALID,89.521,VALID,-0.0169808,VALID,19.9477,VALID,143,VALID,1.45693,
2002-01-15, 03:15:00,VALID,914.939,VALID,0,VALID,89.741,VALID,0,VALID,19.9296,VALID,133,VALID,1.28145,
2002-01-15, 03:16:00,VALID,914.924,VALID,0,VALID,89.8478,VALID,-0.0509425,VALID,19.8933,VALID,133,VALID,1.63281,
2002-01-15, 03:17:00,VALID,914.908,VALID,0,VALID,89.9012,VALID,0,VALID,19.8774,VALID,136,VALID,1.61444,
2002-01-15, 03:18:00,VALID,914.901,VALID,0,VALID,89.9775,VALID,-0.0169808,VALID,19.8545,VALID,129,VALID,1.24127,
2002-01-15, 03:19:00,VALID,914.89,VALID,0,VALID,90.139,VALID,-0.0339617,VALID,19.8347,VALID,121,VALID,1.60714,
2002-01-15, 03:20:00,VALID,914.873,VALID,0,VALID,90.3742,VALID,-0.0169808,VALID,19.8123,VALID,111,VALID,1.25401,
2002-01-15, 03:21:00,VALID,914.86,VALID,0,VALID,90.5688,VALID,0,VALID,19.7835,VALID,111,VALID,1.40308,
2002-01-15, 03:22:00,VALID,914.855,VALID,0,VALID,90.5484,VALID,0,VALID,19.7604,VALID,123,VALID,1.64289,
2002-01-15, 03:23:00,VALID,914.822,VALID,0,VALID,90.4759,VALID,0,VALID,19.7733,VALID,128,VALID,2.01384,
2002-01-15, 03:24:00,VALID,914.819,VALID,0,VALID,90.4225,VALID,-0.0169808,VALID,19.777,VALID,128,VALID,1.92849,
2002-01-15, 03:25:00,VALID,914.802,VALID,0,VALID,90.4836,VALID,-0.0339617,VALID,19.7902,VALID,128,VALID,1.23343,
2002-01-15, 03:26:00,VALID,914.799,VALID,0,VALID,90.5713,VALID,-0.0509425,VALID,19.7673,VALID,125,VALID,1.47092,
2002-01-15, 03:27:00,VALID,914.794,VALID,0,VALID,90.6934,VALID,-0.0339617,VALID,19.7613,VALID,132,VALID,1.62521,
2002-01-15, 03:28:00,VALID,914.799,VALID,0,VALID,90.8371,VALID,0,VALID,19.7281,VALID,128,VALID,1.08193,
2002-01-15, 03:29:00,VALID,914.792,VALID,0,VALID,90.977,VALID,-0.0169808,VALID,19.7089,VALID,119,VALID,1.24961,
2002-01-15, 03:30:00,VALID,914.8,VALID,0,VALID,91.1715,VALID,-0.0169808,VALID,19.6895,VALID,117,VALID,1.11853,